AFR27S VHHH-LFPG

Flight info

Callsign AFR27S
Flight time N/A
Altitude 32100
Route BEKOL A461 SHL W22 TEPID W24 OSNOV G586 QP B330 ELKAL W179 IGNAK/K0926S1010 W179 WFX/K0928S0980 W179 OMBON Y1 NUPNI/K0913S1040 Y1 SADAN W186 KAMUD/K0893F340 L141 MOKDU/K0898F360 L141 TISIB L163 SR N193 OGOLI T898 DARVA/N0483F360 B476 METKA L88 RASAM N199 EDATA M11 REBLO DCT CRM/N0486F380 DCT MAKOL Q12 GOGAR Q18 DOLAP DCT ROTAR DCT SRN DCT CERVI DCT MOLUS DCT UNKIR DCT GIVRI DCT TINIL
Aircraft B77W/H-SDE1E2E3FGHIJ2J3J4J5M1RWXY/LB1D1

Departure

Time 2026-05-04 14:10
Airport Hong Kong International Airport (VHHH)

Arrival

Time N/A
Airport Charles de Gaulle International Airport (LFPG)
Time Latitude Longitude Altitude Speed Heading
2026-05-04 13:51 22.31019 113.92518 41 ft 0 kts 115°
2026-05-04 14:01 22.31024 113.92508 39 ft 2 kts 117°
2026-05-04 14:01 22.31041 113.92477 38 ft 2 kts 124°
2026-05-04 14:02 22.31051 113.92462 37 ft 2 kts 135°
2026-05-04 14:02 22.31064 113.92452 39 ft 2 kts 162°
2026-05-04 14:02 22.31080 113.92451 39 ft 2 kts 199°
2026-05-04 14:02 22.31087 113.92454 38 ft 0 kts 204°
2026-05-04 14:03 22.31057 113.92440 39 ft 11 kts 203°
2026-05-04 14:04 22.30923 113.92299 42 ft 16 kts 313°
2026-05-04 14:04 22.31026 113.92243 42 ft 19 kts 341°
2026-05-04 14:04 22.31198 113.92180 42 ft 28 kts 341°
2026-05-04 14:05 22.31516 113.92033 41 ft 16 kts 288°
2026-05-04 14:05 22.31488 113.91876 41 ft 27 kts 251°
2026-05-04 14:05 22.31426 113.91686 42 ft 27 kts 251°
2026-05-04 14:06 22.31365 113.91495 42 ft 27 kts 251°
2026-05-04 14:06 22.31305 113.91305 42 ft 27 kts 251°
2026-05-04 14:06 22.31243 113.91116 42 ft 27 kts 251°
2026-05-04 14:06 22.31183 113.90925 42 ft 27 kts 251°
2026-05-04 14:07 22.31120 113.90735 42 ft 27 kts 250°
2026-05-04 14:07 22.31059 113.90544 41 ft 27 kts 251°
2026-05-04 14:07 22.30999 113.90356 41 ft 27 kts 250°
2026-05-04 14:07 22.30934 113.90166 41 ft 27 kts 251°
2026-05-04 14:08 22.30874 113.89975 41 ft 27 kts 252°
2026-05-04 14:08 22.30838 113.89779 41 ft 27 kts 274°
2026-05-04 14:08 22.30851 113.89581 41 ft 27 kts 266°
2026-05-04 14:08 22.30889 113.89411 41 ft 22 kts 328°
2026-05-04 14:09 22.31134 113.89924 42 ft 112 kts 71°
2026-05-04 14:09 22.31486 113.91038 43 ft 199 kts 72°
2026-05-04 14:10 22.32430 113.93987 2439 ft 206 kts 72°
2026-05-04 14:10 22.32929 113.95540 2738 ft 228 kts 73°
2026-05-04 14:10 22.33446 113.97191 3139 ft 242 kts 77°
2026-05-04 14:10 22.33789 113.99038 3578 ft 254 kts 82°
2026-05-04 14:11 22.34078 114.00972 4150 ft 265 kts 82°
2026-05-04 14:11 22.34260 114.05027 5193 ft 279 kts 110°
2026-05-04 14:11 22.33307 114.06839 5833 ft 279 kts 136°
2026-05-04 14:12 22.31794 114.08098 6473 ft 280 kts 157°
2026-05-04 14:12 22.29932 114.08717 7063 ft 280 kts 176°
2026-05-04 14:12 22.26032 114.08704 8067 ft 283 kts 184°
2026-05-04 14:13 22.24040 114.08682 8042 ft 287 kts 183°
2026-05-04 14:13 22.22073 114.08664 8046 ft 285 kts 183°
2026-05-04 14:13 22.20101 114.08649 8036 ft 281 kts 182°
2026-05-04 14:13 22.18200 114.09069 8050 ft 284 kts 155°
2026-05-04 14:14 22.16658 114.10434 8065 ft 294 kts 127°
2026-05-04 14:14 22.15645 114.14726 8065 ft 303 kts 94°
2026-05-04 14:14 22.15532 114.16995 8069 ft 307 kts 94°
2026-05-04 14:15 22.15278 114.21555 8040 ft 301 kts 95°
2026-05-04 14:15 22.15136 114.26020 8036 ft 297 kts 82°
2026-05-04 14:16 22.16102 114.30421 8073 ft 306 kts 75°
2026-05-04 14:16 22.16632 114.32645 8064 ft 306 kts 76°
2026-05-04 14:17 22.17612 114.37092 8050 ft 305 kts 77°
2026-05-04 14:17 22.18125 114.39307 8036 ft 301 kts 69°
2026-05-04 14:17 22.20969 114.42305 8220 ft 291 kts 14°
2026-05-04 14:18 22.22965 114.42696 8749 ft 292 kts 355°
2026-05-04 14:18 22.26980 114.42044 10060 ft 293 kts 345°
2026-05-04 14:19 22.31153 114.41185 10691 ft 326 kts 345°
2026-05-04 14:19 22.33436 114.40728 10866 ft 347 kts 346°
2026-05-04 14:19 22.35898 114.40248 11039 ft 368 kts 346°
2026-05-04 14:19 22.38478 114.39756 11450 ft 381 kts 346°
2026-05-04 14:20 22.40218 114.39427 11806 ft 386 kts 346°
2026-05-04 14:20 22.42886 114.38924 12457 ft 390 kts 346°
2026-05-04 14:20 22.45552 114.38399 13182 ft 387 kts 342°
2026-05-04 14:21 22.49862 114.35267 14176 ft 380 kts 302°
2026-05-04 14:21 22.51132 114.32779 14813 ft 377 kts 288°
2026-05-04 14:21 22.51757 114.30049 15424 ft 375 kts 278°
2026-05-04 14:21 22.52155 114.27229 15986 ft 379 kts 277°
2026-05-04 14:22 22.52551 114.24396 16529 ft 384 kts 277°
2026-05-04 14:22 22.52985 114.21529 17117 ft 387 kts 278°
2026-05-04 14:22 22.53441 114.18651 17708 ft 389 kts 278°
2026-05-04 14:22 22.54205 114.15842 18084 ft 396 kts 294°
2026-05-04 14:23 22.57950 114.11350 19034 ft 414 kts 323°
2026-05-04 14:23 22.60487 114.09903 19507 ft 419 kts 330°
2026-05-04 14:23 22.63152 114.08580 19961 ft 423 kts 331°
2026-05-04 14:24 22.65860 114.07265 20409 ft 427 kts 331°
2026-05-04 14:24 22.68580 114.05931 20864 ft 430 kts 330°
2026-05-04 14:24 22.71307 114.04571 21335 ft 432 kts 330°
2026-05-04 14:24 22.74044 114.03185 21791 ft 435 kts 330°
2026-05-04 14:25 22.76789 114.01781 22250 ft 438 kts 329°
2026-05-04 14:25 22.82303 113.98947 23126 ft 444 kts 329°
2026-05-04 14:25 22.85116 113.97502 23548 ft 447 kts 329°
2026-05-04 14:26 22.87933 113.96056 23894 ft 450 kts 329°
2026-05-04 14:26 22.90770 113.94598 24249 ft 452 kts 329°
2026-05-04 14:26 22.93620 113.93121 24626 ft 454 kts 329°
2026-05-04 14:26 22.96453 113.91643 24985 ft 455 kts 329°
2026-05-04 14:27 22.99331 113.90139 25329 ft 458 kts 328°
2026-05-04 14:27 23.02188 113.88649 25664 ft 460 kts 328°
2026-05-04 14:27 23.05095 113.87131 25996 ft 462 kts 327°
2026-05-04 14:27 23.07886 113.85422 26323 ft 459 kts 321°
2026-05-04 14:28 23.10494 113.83438 26662 ft 457 kts 317°
2026-05-04 14:28 23.12920 113.81228 27009 ft 454 kts 311°
2026-05-04 14:28 23.15176 113.78866 27351 ft 455 kts 310°
2026-05-04 14:28 23.17445 113.76459 27688 ft 456 kts 310°
2026-05-04 14:29 23.21983 113.71638 28319 ft 460 kts 310°
2026-05-04 14:29 23.26601 113.66770 28915 ft 463 kts 310°
2026-05-04 14:30 23.28931 113.64325 29186 ft 465 kts 309°
2026-05-04 14:30 23.31264 113.61881 29445 ft 467 kts 309°
2026-05-04 14:30 23.35975 113.56941 29989 ft 469 kts 309°
2026-05-04 14:31 23.38326 113.54474 30323 ft 467 kts 309°
2026-05-04 14:31 23.42956 113.49608 31016 ft 463 kts 309°
2026-05-04 14:32 23.47585 113.44733 31648 ft 460 kts 309°
2026-05-04 14:32 23.49887 113.42308 31933 ft 459 kts 309°
2026-05-04 14:32 23.52157 113.39916 32191 ft 460 kts 309°
2026-05-04 14:33 23.56760 113.35015 32259 ft 460 kts 309°
2026-05-04 14:33 23.61283 113.30143 32263 ft 455 kts 309°
2026-05-04 14:34 23.65451 113.25093 32273 ft 445 kts 300°
2026-05-04 14:34 23.68771 113.19422 32264 ft 444 kts 293°
2026-05-04 14:35 23.71348 113.13286 32272 ft 444 kts 289°
2026-05-04 14:35 23.73856 113.07088 32265 ft 446 kts 290°
2026-05-04 14:36 23.76768 113.01115 32253 ft 454 kts 305°
2026-05-04 14:36 23.81743 112.96700 32265 ft 473 kts 324°
2026-05-04 14:36 23.84816 112.95375 32269 ft 486 kts 337°
2026-05-04 14:37 23.88108 112.94437 32265 ft 487 kts 337°
2026-05-04 14:37 23.94569 112.92410 32266 ft 484 kts 335°
2026-05-04 14:38 24.01001 112.90255 32272 ft 483 kts 335°
2026-05-04 14:38 24.07419 112.88114 32265 ft 482 kts 335°
2026-05-04 14:39 24.13842 112.85989 32258 ft 481 kts 335°
2026-05-04 14:39 24.20226 112.83869 32291 ft 478 kts 335°
2026-05-04 14:40 24.29784 112.80690 32269 ft 477 kts 335°
2026-05-04 14:40 24.36112 112.78591 32281 ft 478 kts 335°
2026-05-04 14:41 24.42451 112.76406 32271 ft 470 kts 328°
2026-05-04 14:41 24.47250 112.72059 32280 ft 441 kts 298°
2026-05-04 14:42 24.49886 112.66052 32273 ft 436 kts 279°
2026-05-04 14:42 24.50569 112.59506 32263 ft 436 kts 274°
2026-05-04 14:43 24.51135 112.52849 32272 ft 440 kts 274°
2026-05-04 14:43 24.51746 112.46164 32269 ft 436 kts 274°
2026-05-04 14:44 24.52371 112.39585 32266 ft 432 kts 274°
2026-05-04 14:44 24.53000 112.33022 32265 ft 432 kts 274°
2026-05-04 14:45 24.53630 112.26455 32268 ft 432 kts 275°
2026-05-04 14:45 24.54254 112.19881 32274 ft 434 kts 275°
2026-05-04 14:46 24.54877 112.13301 32281 ft 435 kts 275°
2026-05-04 14:46 24.55499 112.06686 32267 ft 437 kts 275°
2026-05-04 14:47 24.56120 112.00039 32261 ft 436 kts 274°
2026-05-04 14:47 24.56733 111.93425 32267 ft 434 kts 275°
2026-05-04 14:48 24.57346 111.86839 32267 ft 434 kts 275°
2026-05-04 14:48 24.57960 111.80227 32264 ft 434 kts 275°
2026-05-04 14:49 24.58567 111.73624 32251 ft 434 kts 275°
2026-05-04 14:49 24.59166 111.67080 32267 ft 434 kts 275°
2026-05-04 14:50 24.59767 111.60477 32245 ft 435 kts 275°
2026-05-04 14:50 24.60366 111.53865 32242 ft 434 kts 275°
2026-05-04 14:51 24.60962 111.47266 32253 ft 434 kts 275°
2026-05-04 14:51 24.61556 111.40658 32250 ft 435 kts 275°
2026-05-04 14:52 24.62148 111.34034 32245 ft 435 kts 275°
2026-05-04 14:52 24.62735 111.27411 32248 ft 435 kts 275°
2026-05-04 14:53 24.63309 111.20779 32240 ft 436 kts 275°
2026-05-04 14:53 24.63882 111.14150 32240 ft 436 kts 275°
2026-05-04 14:54 24.64452 111.07579 32247 ft 435 kts 275°
2026-05-04 14:54 24.65023 111.00950 32233 ft 435 kts 275°
2026-05-04 14:55 24.65589 110.94335 32244 ft 435 kts 275°
2026-05-04 14:55 24.66153 110.87712 32242 ft 435 kts 275°
2026-05-04 14:56 24.67018 110.81157 32235 ft 435 kts 287°
2026-05-04 14:56 24.69716 110.75213 32243 ft 442 kts 300°
2026-05-04 14:57 24.73921 110.70198 32245 ft 450 kts 311°
2026-05-04 14:57 24.78520 110.65495 32238 ft 451 kts 311°
2026-05-04 14:58 24.83000 110.60841 32235 ft 451 kts 310°
2026-05-04 14:58 24.86773 110.56864 32230 ft 452 kts 310°
2026-05-04 14:59 24.92064 110.51268 32227 ft 451 kts 310°
2026-05-04 15:00 24.98842 110.44093 32239 ft 450 kts 310°
2026-05-04 15:00 25.03331 110.39342 32233 ft 450 kts 310°
2026-05-04 15:01 25.10110 110.32192 32234 ft 449 kts 311°
2026-05-04 15:01 25.14611 110.27435 32242 ft 448 kts 311°
2026-05-04 15:02 25.19109 110.22669 32245 ft 447 kts 310°
2026-05-04 15:02 25.23605 110.17930 32245 ft 447 kts 311°
2026-05-04 15:03 25.28128 110.13201 32243 ft 447 kts 311°
2026-05-04 15:03 25.32649 110.08478 32252 ft 447 kts 311°
2026-05-04 15:04 25.37168 110.03742 32241 ft 447 kts 311°
2026-05-04 15:04 25.41680 109.99004 32240 ft 447 kts 311°
2026-05-04 15:05 25.46164 109.94289 32260 ft 447 kts 311°
2026-05-04 15:05 25.49954 109.90304 32252 ft 448 kts 311°
2026-05-04 15:06 25.54445 109.85577 32256 ft 448 kts 311°
2026-05-04 15:07 25.61232 109.78417 32239 ft 449 kts 311°
2026-05-04 15:07 25.65746 109.73648 32249 ft 448 kts 311°
2026-05-04 15:08 25.70253 109.68884 32237 ft 447 kts 311°
2026-05-04 15:08 25.74680 109.64053 32233 ft 442 kts 305°
2026-05-04 15:09 25.77972 109.58394 32240 ft 435 kts 294°
2026-05-04 15:09 25.80130 109.52177 32249 ft 432 kts 285°
2026-05-04 15:10 25.82578 109.42580 32240 ft 434 kts 284°
2026-05-04 15:11 25.85105 109.32890 32258 ft 436 kts 285°
2026-05-04 15:11 25.86809 109.26401 32246 ft 438 kts 285°
2026-05-04 15:12 25.88509 109.19905 32254 ft 438 kts 285°
2026-05-04 15:12 25.90207 109.13402 32270 ft 438 kts 285°
2026-05-04 15:13 25.91901 109.06907 32257 ft 437 kts 285°
2026-05-04 15:13 25.93596 109.00432 32265 ft 436 kts 285°
2026-05-04 15:14 25.95296 108.94009 32262 ft 436 kts 285°
2026-05-04 15:14 25.97002 108.87546 32264 ft 435 kts 285°
2026-05-04 15:15 25.98700 108.81090 32281 ft 435 kts 285°
2026-05-04 15:15 26.00395 108.74633 32279 ft 434 kts 285°
2026-05-04 15:16 26.02954 108.65005 32290 ft 435 kts 285°
2026-05-04 15:17 26.05543 108.55335 32297 ft 435 kts 285°
2026-05-04 15:17 26.08123 108.45642 32295 ft 435 kts 285°
2026-05-04 15:18 26.09958 108.39231 32315 ft 435 kts 289°
2026-05-04 15:19 26.13835 108.30104 32313 ft 437 kts 294°
2026-05-04 15:19 26.17801 108.20956 32308 ft 437 kts 293°
2026-05-04 15:20 26.20430 108.14861 32319 ft 436 kts 293°
2026-05-04 15:20 26.23055 108.08761 32319 ft 437 kts 293°
2026-05-04 15:21 26.25668 108.02685 32323 ft 438 kts 293°
2026-05-04 15:22 26.29606 107.93509 32330 ft 437 kts 293°
2026-05-04 15:22 26.33539 107.84325 32321 ft 437 kts 293°
2026-05-04 15:23 26.36154 107.78206 32330 ft 437 kts 293°
2026-05-04 15:23 26.38765 107.72089 32325 ft 436 kts 293°
2026-05-04 15:24 26.43975 107.59858 32334 ft 436 kts 293°
2026-05-04 15:25 26.46574 107.53745 32339 ft 435 kts 293°
2026-05-04 15:26 26.50465 107.44644 32341 ft 435 kts 294°
2026-05-04 15:26 26.54387 107.35498 32354 ft 435 kts 294°
2026-05-04 15:27 26.58261 107.26310 32358 ft 436 kts 293°
2026-05-04 15:28 26.62126 107.17099 32362 ft 437 kts 293°
2026-05-04 15:29 26.66019 107.07889 32362 ft 437 kts 294°
2026-05-04 15:30 26.75147 106.86404 32362 ft 436 kts 294°
2026-05-04 15:31 26.79833 106.77724 32364 ft 440 kts 305°
2026-05-04 15:32 26.91017 106.65876 32347 ft 444 kts 314°
2026-05-04 15:34 27.02625 106.54530 32342 ft 443 kts 314°
2026-05-04 15:34 27.09581 106.47680 32333 ft 443 kts 314°
2026-05-04 15:35 27.16492 106.40865 32321 ft 442 kts 314°
2026-05-04 15:36 27.23413 106.34066 32326 ft 440 kts 314°
2026-05-04 15:36 27.28063 106.29551 32331 ft 441 kts 314°
2026-05-04 15:37 27.32720 106.25028 32316 ft 442 kts 314°
2026-05-04 15:37 27.37337 106.20532 32318 ft 441 kts 314°
2026-05-04 15:38 27.41976 106.16005 32310 ft 441 kts 314°
2026-05-04 15:38 27.46611 106.11478 32312 ft 441 kts 314°
2026-05-04 15:39 27.51243 106.06947 32302 ft 440 kts 314°
2026-05-04 15:40 27.58180 106.00153 32298 ft 440 kts 314°
2026-05-04 15:40 27.62795 105.95625 32289 ft 439 kts 314°
2026-05-04 15:41 27.67379 105.91128 32284 ft 438 kts 314°
2026-05-04 15:41 27.71532 105.86207 32284 ft 431 kts 302°
2026-05-04 15:42 27.74530 105.80378 32287 ft 429 kts 292°
2026-05-04 15:42 27.76411 105.73984 32288 ft 429 kts 287°
2026-05-04 15:43 27.78159 105.67572 32264 ft 429 kts 287°
2026-05-04 15:43 27.80012 105.61151 32265 ft 430 kts 290°
2026-05-04 15:44 27.82383 105.54933 32266 ft 432 kts 292°
2026-05-04 15:44 27.84809 105.48712 32262 ft 433 kts 292°
2026-05-04 15:45 27.87222 105.42473 32253 ft 433 kts 292°
2026-05-04 15:45 27.89731 105.36287 32244 ft 433 kts 295°
2026-05-04 15:46 27.92463 105.30211 32235 ft 433 kts 295°
2026-05-04 15:46 27.95178 105.24131 32232 ft 433 kts 295°
2026-05-04 15:47 27.98491 105.18522 32233 ft 435 kts 309°
2026-05-04 15:47 28.02919 105.13798 32220 ft 441 kts 320°
2026-05-04 15:48 28.08161 105.10089 32207 ft 445 kts 323°
2026-05-04 15:48 28.16139 105.04634 32201 ft 447 kts 323°
2026-05-04 15:49 28.21436 105.00947 32186 ft 446 kts 323°
2026-05-04 15:49 28.26707 104.97254 32188 ft 445 kts 323°
2026-05-04 15:50 28.31957 104.93572 32187 ft 444 kts 323°
2026-05-04 15:50 28.37200 104.89893 32183 ft 442 kts 323°
2026-05-04 15:51 28.42401 104.86246 32171 ft 442 kts 323°
2026-05-04 15:51 28.47640 104.82579 32178 ft 442 kts 323°
2026-05-04 15:52 28.52889 104.78901 32172 ft 443 kts 323°
2026-05-04 15:52 28.58129 104.75223 32173 ft 443 kts 323°
2026-05-04 15:53 28.63386 104.71529 32175 ft 444 kts 323°
2026-05-04 15:53 28.68608 104.67851 32162 ft 445 kts 323°
2026-05-04 15:54 28.73874 104.64144 32180 ft 444 kts 323°
2026-05-04 15:54 28.78240 104.61069 32166 ft 443 kts 323°
2026-05-04 15:55 28.83483 104.57374 32173 ft 442 kts 323°
2026-05-04 15:55 28.88709 104.53673 32180 ft 442 kts 323°
2026-05-04 15:56 28.93930 104.49961 32179 ft 441 kts 323°
2026-05-04 15:56 28.99128 104.46257 32176 ft 440 kts 323°
2026-05-04 15:57 29.04291 104.42577 32178 ft 439 kts 323°
2026-05-04 15:57 29.09481 104.38878 32180 ft 439 kts 323°
2026-05-04 15:58 29.14658 104.35178 32182 ft 439 kts 323°
2026-05-04 15:58 29.19833 104.31479 32187 ft 438 kts 323°
2026-05-04 15:59 29.25205 104.28178 32184 ft 445 kts 337°
2026-05-04 15:59 29.31348 104.26979 32195 ft 459 kts 351°
2026-05-04 16:00 29.37790 104.27793 32195 ft 469 kts
2026-05-04 16:00 29.44239 104.29003 32197 ft 468 kts
2026-05-04 16:01 29.50674 104.30166 32204 ft 466 kts
2026-05-04 16:01 29.57042 104.31263 32203 ft 465 kts
2026-05-04 16:02 29.63434 104.32349 32204 ft 463 kts
2026-05-04 16:03 29.72983 104.33976 32209 ft 461 kts
2026-05-04 16:03 29.79284 104.35053 32212 ft 459 kts
2026-05-04 16:04 29.85596 104.36133 32205 ft 458 kts
2026-05-04 16:04 29.95047 104.37750 32212 ft 457 kts
2026-05-04 16:05 30.01338 104.38832 32223 ft 457 kts
2026-05-04 16:06 30.10780 104.40461 32230 ft 458 kts
2026-05-04 16:07 30.23396 104.42649 32223 ft 458 kts
2026-05-04 16:08 30.35985 104.44855 32227 ft 459 kts
2026-05-04 16:09 30.51840 104.47639 32222 ft 462 kts
2026-05-04 16:10 30.64401 104.47690 32216 ft 446 kts 343°
2026-05-04 16:11 30.76109 104.43278 32219 ft 444 kts 337°
2026-05-04 16:12 30.94346 104.38721 32213 ft 458 kts 353°
2026-05-04 16:13 31.07100 104.38464 32204 ft 457 kts 353°
2026-05-04 16:14 31.19759 104.38137 32215 ft 456 kts 353°
2026-05-04 16:16 31.35602 104.37408 32287 ft 457 kts 351°
2026-05-04 16:16 31.45091 104.36834 33291 ft 453 kts 351°
2026-05-04 16:17 31.51358 104.36479 33968 ft 450 kts 351°
2026-05-04 16:18 31.63895 104.35753 34035 ft 448 kts 352°
2026-05-04 16:19 31.79361 104.34858 34054 ft 445 kts 352°
2026-05-04 16:20 31.94873 104.34075 34076 ft 447 kts 352°
2026-05-04 16:22 32.10416 104.33279 34065 ft 447 kts 352°
2026-05-04 16:23 32.29102 104.32315 34065 ft 448 kts 352°
2026-05-04 16:25 32.47678 104.31360 34077 ft 445 kts 352°
2026-05-04 16:26 32.69381 104.30295 34065 ft 450 kts 353°
2026-05-04 16:28 32.85076 104.29546 34056 ft 450 kts 353°
2026-05-04 16:28 32.94288 104.29105 34026 ft 431 kts 354°
2026-05-04 16:29 33.06240 104.28526 34039 ft 433 kts 354°
2026-05-04 16:31 33.21412 104.27793 34022 ft 438 kts 354°
2026-05-04 16:32 33.37987 104.21530 34004 ft 430 kts 315°
2026-05-04 16:33 33.41105 104.15492 34033 ft 433 kts 302°
2026-05-04 16:33 33.43879 104.09065 34021 ft 435 kts 302°
2026-05-04 16:34 33.48137 103.99354 34019 ft 440 kts 302°
2026-05-04 16:35 33.56735 103.80021 33997 ft 434 kts 303°
2026-05-04 16:36 33.60965 103.70472 33997 ft 434 kts 303°
2026-05-04 16:37 33.65192 103.60896 34005 ft 431 kts 303°
2026-05-04 16:38 33.70829 103.48105 33958 ft 434 kts 303°
2026-05-04 16:39 33.77845 103.32106 33958 ft 434 kts 303°
2026-05-04 16:40 33.83456 103.19274 33957 ft 433 kts 303°
2026-05-04 16:41 33.90448 103.03195 33967 ft 433 kts 303°
2026-05-04 16:43 33.97381 102.87183 33967 ft 430 kts 303°
2026-05-04 16:43 34.01517 102.77596 33966 ft 429 kts 303°
2026-05-04 16:45 34.09766 102.58404 33980 ft 432 kts 302°
2026-05-04 16:46 34.16206 102.43350 33973 ft 433 kts 302°
2026-05-04 16:47 34.21765 102.30476 33978 ft 431 kts 303°
2026-05-04 16:48 34.27420 102.17760 33994 ft 431 kts 303°
2026-05-04 16:49 34.33080 102.04936 33989 ft 433 kts 303°
2026-05-04 16:50 34.38745 101.92032 33972 ft 434 kts 302°
2026-05-04 16:51 34.42989 101.82339 33971 ft 434 kts 302°
2026-05-04 16:52 34.48610 101.69459 33969 ft 433 kts 302°
2026-05-04 16:53 34.52828 101.59761 33967 ft 433 kts 302°
2026-05-04 16:54 34.58442 101.46809 33953 ft 434 kts 301°
2026-05-04 16:55 34.66852 101.27318 33952 ft 434 kts 301°
2026-05-04 16:56 34.73829 101.11060 33941 ft 436 kts 300°
2026-05-04 16:57 34.78035 101.01230 33949 ft 437 kts 300°
2026-05-04 16:58 34.83637 100.88077 33944 ft 438 kts 300°
2026-05-04 17:00 34.92021 100.68297 33931 ft 438 kts 300°
2026-05-04 17:01 34.98979 100.51801 33916 ft 440 kts 299°
2026-05-04 17:02 35.04562 100.38496 33902 ft 440 kts 299°
2026-05-04 17:03 35.08751 100.28494 33907 ft 441 kts 299°
2026-05-04 17:03 35.12914 100.18512 33903 ft 442 kts 298°
2026-05-04 17:04 35.18491 100.05096 33905 ft 442 kts 298°
2026-05-04 17:05 35.24058 99.91652 33908 ft 443 kts 298°
2026-05-04 17:06 35.28225 99.81547 33908 ft 444 kts 298°
2026-05-04 17:07 35.31922 99.72562 33919 ft 444 kts 298°
2026-05-04 17:07 35.35143 99.64712 33928 ft 444 kts 298°
2026-05-04 17:08 35.39301 99.54549 33955 ft 445 kts 298°
2026-05-04 17:09 35.42074 99.47757 33938 ft 446 kts 298°
2026-05-04 17:09 35.44852 99.40937 33942 ft 447 kts 298°
2026-05-04 17:10 35.51764 99.23903 33951 ft 447 kts 298°
2026-05-04 17:11 35.54532 99.17058 33955 ft 448 kts 298°
2026-05-04 17:12 35.58680 99.06774 33956 ft 448 kts 298°
2026-05-04 17:13 35.65558 98.89650 33978 ft 448 kts 297°
2026-05-04 17:14 35.71068 98.75865 33939 ft 449 kts 297°
2026-05-04 17:15 35.75192 98.65510 33934 ft 449 kts 297°
2026-05-04 17:16 35.80664 98.51717 33944 ft 449 kts 297°
2026-05-04 17:17 35.86131 98.37881 33897 ft 448 kts 296°
2026-05-04 17:18 35.91579 98.24034 33866 ft 449 kts 296°
2026-05-04 17:19 35.97023 98.10136 33846 ft 450 kts 296°
2026-05-04 17:20 36.02446 97.96232 33809 ft 451 kts 296°
2026-05-04 17:20 36.06522 97.85742 33777 ft 451 kts 296°
2026-05-04 17:21 36.11951 97.71718 33739 ft 452 kts 296°
2026-05-04 17:22 36.14662 97.64693 33722 ft 453 kts 296°
2026-05-04 17:23 36.20248 97.50744 33707 ft 454 kts 297°
2026-05-04 17:24 36.24500 97.40247 33704 ft 455 kts 296°
2026-05-04 17:25 36.30137 97.26209 33701 ft 455 kts 296°
2026-05-04 17:26 36.35759 97.12138 33674 ft 455 kts 296°
2026-05-04 17:27 36.42749 96.94563 33679 ft 455 kts 296°
2026-05-04 17:28 36.48338 96.80439 33676 ft 455 kts 296°
2026-05-04 17:29 36.56685 96.59237 33666 ft 455 kts 296°
2026-05-04 17:31 36.63691 96.41656 33657 ft 454 kts 297°
2026-05-04 17:32 36.70686 96.24028 33648 ft 453 kts 297°
2026-05-04 17:33 36.76248 96.09940 33641 ft 452 kts 296°
2026-05-04 17:34 36.81814 95.95916 33632 ft 452 kts 297°
2026-05-04 17:35 36.88330 95.79552 33623 ft 450 kts 297°
2026-05-04 17:36 36.91111 95.72532 33623 ft 449 kts 296°
2026-05-04 17:36 36.93876 95.65539 33642 ft 448 kts 296°
2026-05-04 17:37 36.96632 95.58555 33640 ft 447 kts 296°
2026-05-04 17:37 36.99375 95.51587 33625 ft 446 kts 296°
2026-05-04 17:38 37.02139 95.44665 33624 ft 444 kts 297°
2026-05-04 17:38 37.04933 95.37821 33625 ft 443 kts 297°
2026-05-04 17:39 37.09140 95.27492 33625 ft 443 kts 297°
2026-05-04 17:39 37.11928 95.20609 33624 ft 443 kts 297°
2026-05-04 17:40 37.14693 95.13760 33626 ft 443 kts 296°
2026-05-04 17:40 37.17474 95.06853 33627 ft 443 kts 296°
2026-05-04 17:41 37.20252 94.99943 33628 ft 444 kts 296°
2026-05-04 17:41 37.23032 94.93013 33630 ft 444 kts 296°
2026-05-04 17:42 37.25806 94.86080 33632 ft 444 kts 296°
2026-05-04 17:42 37.28578 94.79139 33636 ft 445 kts 296°
2026-05-04 17:43 37.31328 94.72238 33634 ft 445 kts 296°
2026-05-04 17:43 37.34094 94.65278 33633 ft 445 kts 295°
2026-05-04 17:44 37.36857 94.58315 33638 ft 445 kts 295°
2026-05-04 17:44 37.39616 94.51344 33641 ft 445 kts 295°
2026-05-04 17:45 37.42369 94.44374 33641 ft 444 kts 295°
2026-05-04 17:45 37.45114 94.37407 33644 ft 444 kts 295°
2026-05-04 17:46 37.47854 94.30438 33647 ft 444 kts 295°
2026-05-04 17:46 37.50570 94.23515 33648 ft 444 kts 295°
2026-05-04 17:47 37.53301 94.16538 33648 ft 444 kts 295°
2026-05-04 17:47 37.56026 94.09561 33651 ft 443 kts 295°
2026-05-04 17:48 37.58745 94.02585 33655 ft 443 kts 295°
2026-05-04 17:48 37.61462 93.95596 33655 ft 443 kts 295°
2026-05-04 17:49 37.64172 93.88611 33659 ft 443 kts 295°
2026-05-04 17:49 37.66876 93.81626 33661 ft 443 kts 295°
2026-05-04 17:50 37.69560 93.74675 33667 ft 443 kts 294°
2026-05-04 17:50 37.72264 93.67658 33670 ft 443 kts 294°
2026-05-04 17:51 37.74959 93.60649 33683 ft 443 kts 294°
2026-05-04 17:51 37.77636 93.53671 33683 ft 444 kts 294°
2026-05-04 17:52 37.80329 93.46634 33692 ft 444 kts 294°
2026-05-04 17:52 37.83022 93.39581 33697 ft 445 kts 294°
2026-05-04 17:53 37.85713 93.32520 33702 ft 445 kts 294°
2026-05-04 17:53 37.88392 93.25471 33712 ft 445 kts 294°
2026-05-04 17:54 37.91071 93.18408 33720 ft 445 kts 294°
2026-05-04 17:54 37.93727 93.11388 33725 ft 445 kts 293°
2026-05-04 17:55 37.96397 93.04315 33734 ft 445 kts 293°
2026-05-04 17:55 37.99067 92.97226 33741 ft 445 kts 293°
2026-05-04 17:56 38.01732 92.90134 33744 ft 445 kts 293°
2026-05-04 17:56 38.04392 92.83037 33749 ft 445 kts 293°
2026-05-04 17:57 38.07052 92.75927 33757 ft 446 kts 292°
2026-05-04 17:57 38.09692 92.68853 33760 ft 447 kts 292°
2026-05-04 17:58 38.12351 92.61711 33764 ft 447 kts 292°
2026-05-04 17:58 38.15011 92.54554 33770 ft 448 kts 292°
2026-05-04 17:59 38.17540 92.47320 33773 ft 447 kts 288°
2026-05-04 18:00 38.20806 92.36191 33782 ft 448 kts 287°
2026-05-04 18:00 38.22976 92.28759 33779 ft 448 kts 287°
2026-05-04 18:01 38.25160 92.21310 33783 ft 448 kts 287°
2026-05-04 18:01 38.27325 92.13926 33781 ft 448 kts 287°
2026-05-04 18:02 38.30586 92.02768 33781 ft 448 kts 287°
2026-05-04 18:02 38.32754 91.95322 33786 ft 448 kts 287°
2026-05-04 18:03 38.34916 91.87880 33788 ft 448 kts 286°
2026-05-04 18:03 38.37059 91.80476 33787 ft 448 kts 286°
2026-05-04 18:04 38.39211 91.73026 33785 ft 448 kts 286°
2026-05-04 18:05 38.42427 91.61850 33791 ft 448 kts 286°
2026-05-04 18:05 38.44565 91.54392 33799 ft 448 kts 286°
2026-05-04 18:06 38.47768 91.43184 33807 ft 448 kts 286°
2026-05-04 18:06 38.49901 91.35695 33814 ft 449 kts 286°
2026-05-04 18:07 38.52033 91.28185 33824 ft 450 kts 286°
2026-05-04 18:07 38.54161 91.20670 33833 ft 450 kts 286°
2026-05-04 18:08 38.56285 91.13148 33840 ft 450 kts 286°
2026-05-04 18:08 38.58394 91.05657 33852 ft 450 kts 286°
2026-05-04 18:09 38.62613 90.90612 33877 ft 449 kts 286°
2026-05-04 18:10 38.64716 90.83079 33884 ft 449 kts 286°
2026-05-04 18:10 38.66814 90.75549 33894 ft 449 kts 286°
2026-05-04 18:11 38.68960 90.68050 33896 ft 449 kts 288°
2026-05-04 18:11 38.71350 90.60654 33907 ft 450 kts 289°
2026-05-04 18:12 38.73766 90.53263 33890 ft 450 kts 288°
2026-05-04 18:12 38.76157 90.45863 33907 ft 449 kts 288°
2026-05-04 18:13 38.78520 90.38505 33910 ft 449 kts 288°
2026-05-04 18:14 38.82065 90.27397 33901 ft 448 kts 288°
2026-05-04 18:14 38.84412 90.19989 33889 ft 448 kts 288°
2026-05-04 18:15 38.89093 90.05169 33875 ft 448 kts 288°
2026-05-04 18:16 38.91426 89.97759 33870 ft 447 kts 287°
2026-05-04 18:16 38.93757 89.90338 33866 ft 447 kts 287°
2026-05-04 18:17 38.97224 89.79257 33842 ft 447 kts 287°
2026-05-04 18:18 39.00691 89.68136 33831 ft 446 kts 287°
2026-05-04 18:18 39.02994 89.60724 33811 ft 446 kts 287°
2026-05-04 18:19 39.06434 89.49614 33796 ft 445 kts 287°
2026-05-04 18:19 39.08333 89.43461 33776 ft 445 kts 287°
2026-05-04 18:20 39.10614 89.36051 33768 ft 445 kts 287°
2026-05-04 18:20 39.13257 89.27442 33752 ft 445 kts 287°
2026-05-04 18:21 39.15145 89.21276 33743 ft 445 kts 287°
2026-05-04 18:21 39.17411 89.13854 33734 ft 445 kts 286°
2026-05-04 18:22 39.19673 89.06429 33732 ft 445 kts 286°
2026-05-04 18:22 39.21930 88.98998 33720 ft 445 kts 286°
2026-05-04 18:23 39.24181 88.91567 33715 ft 445 kts 286°
2026-05-04 18:23 39.26432 88.84114 33710 ft 445 kts 286°
2026-05-04 18:24 39.28678 88.76657 33708 ft 446 kts 286°
2026-05-04 18:24 39.30924 88.69180 33699 ft 446 kts 286°
2026-05-04 18:25 39.33152 88.61744 33699 ft 447 kts 286°
2026-05-04 18:25 39.35395 88.54236 33688 ft 448 kts 286°
2026-05-04 18:26 39.37633 88.46724 33693 ft 448 kts 286°
2026-05-04 18:26 39.39870 88.39194 33690 ft 449 kts 285°
2026-05-04 18:27 39.42106 88.31647 33690 ft 449 kts 285°
2026-05-04 18:27 39.44324 88.24138 33685 ft 449 kts 285°
2026-05-04 18:28 39.46552 88.16575 33685 ft 450 kts 285°
2026-05-04 18:28 39.48777 88.09000 33682 ft 450 kts 285°
2026-05-04 18:29 39.50997 88.01423 33678 ft 450 kts 285°
2026-05-04 18:29 39.53214 87.93830 33682 ft 450 kts 285°
2026-05-04 18:30 39.56531 87.82434 33687 ft 451 kts 285°
2026-05-04 18:31 39.58740 87.74817 33688 ft 450 kts 285°
2026-05-04 18:31 39.60936 87.67220 33685 ft 451 kts 285°
2026-05-04 18:32 39.63121 87.59644 33696 ft 451 kts 284°
2026-05-04 18:32 39.65314 87.52014 33687 ft 451 kts 284°
2026-05-04 18:33 39.67505 87.44370 33695 ft 451 kts 284°
2026-05-04 18:33 39.69674 87.36781 33693 ft 451 kts 284°
2026-05-04 18:34 39.71851 87.29142 33696 ft 450 kts 284°
2026-05-04 18:34 39.74035 87.21455 33690 ft 450 kts 284°
2026-05-04 18:35 39.76185 87.13866 33703 ft 450 kts 284°
2026-05-04 18:35 39.78348 87.06213 33720 ft 450 kts 284°
2026-05-04 18:36 39.80506 86.98546 33709 ft 451 kts 284°
2026-05-04 18:36 39.82646 86.90927 33713 ft 451 kts 284°
2026-05-04 18:37 39.84791 86.83267 33713 ft 451 kts 284°
2026-05-04 18:37 39.86933 86.75593 33709 ft 451 kts 283°
2026-05-04 18:38 39.89070 86.67915 33715 ft 451 kts 283°
2026-05-04 18:38 39.91205 86.60220 33718 ft 451 kts 283°
2026-05-04 18:39 39.93332 86.52535 33718 ft 451 kts 283°
2026-05-04 18:39 39.95456 86.44834 33715 ft 451 kts 283°
2026-05-04 18:40 39.97558 86.37187 33724 ft 451 kts 283°
2026-05-04 18:40 39.99687 86.29427 33724 ft 451 kts 283°
2026-05-04 18:41 40.01784 86.21753 33723 ft 452 kts 283°
2026-05-04 18:41 40.03892 86.14020 33733 ft 452 kts 283°
2026-05-04 18:42 40.05999 86.06270 33731 ft 453 kts 282°
2026-05-04 18:42 40.08061 85.98496 33738 ft 451 kts 280°
2026-05-04 18:43 40.09820 85.90656 33746 ft 450 kts 279°
2026-05-04 18:43 40.11523 85.82786 33750 ft 449 kts 279°
2026-05-04 18:44 40.13230 85.74936 33739 ft 449 kts 279°
2026-05-04 18:44 40.14945 85.67094 33748 ft 449 kts 279°
2026-05-04 18:45 40.16649 85.59298 33753 ft 448 kts 279°
2026-05-04 18:45 40.18356 85.51456 33752 ft 448 kts 278°
2026-05-04 18:46 40.20057 85.43615 33749 ft 448 kts 278°
2026-05-04 18:46 40.21749 85.35781 33743 ft 448 kts 278°
2026-05-04 18:47 40.23440 85.27928 33755 ft 448 kts 278°
2026-05-04 18:47 40.25125 85.20075 33764 ft 447 kts 278°
2026-05-04 18:48 40.26801 85.12231 33758 ft 447 kts 278°
2026-05-04 18:48 40.28473 85.04377 33754 ft 448 kts 278°
2026-05-04 18:49 40.30142 84.96514 33753 ft 448 kts 278°
2026-05-04 18:49 40.31792 84.88707 33758 ft 448 kts 278°
2026-05-04 18:50 40.33451 84.80834 33759 ft 448 kts 278°
2026-05-04 18:50 40.35104 84.72956 33755 ft 448 kts 278°
2026-05-04 18:51 40.36752 84.65073 33753 ft 448 kts 278°
2026-05-04 18:51 40.38396 84.57180 33757 ft 449 kts 278°
2026-05-04 18:52 40.40034 84.49282 33757 ft 449 kts 278°
2026-05-04 18:52 40.41661 84.41412 33759 ft 450 kts 278°
2026-05-04 18:53 40.43294 84.33481 33756 ft 450 kts 278°
2026-05-04 18:53 40.44926 84.25528 33755 ft 451 kts 278°
2026-05-04 18:54 40.46553 84.17568 33753 ft 452 kts 278°
2026-05-04 18:54 40.48179 84.09584 33758 ft 453 kts 278°
2026-05-04 18:55 40.49804 84.01583 33753 ft 453 kts 278°
2026-05-04 18:55 40.52233 83.89609 33753 ft 455 kts 279°
2026-05-04 18:56 40.53914 83.81583 33762 ft 455 kts 279°
2026-05-04 18:56 40.55603 83.73555 33758 ft 456 kts 279°
2026-05-04 18:57 40.57293 83.65498 33756 ft 456 kts 279°
2026-05-04 18:57 40.58964 83.57454 33756 ft 456 kts 279°
2026-05-04 18:58 40.60628 83.49392 33758 ft 456 kts 279°
2026-05-04 18:58 40.62286 83.41328 33756 ft 457 kts 279°
2026-05-04 18:59 40.63927 83.33315 33757 ft 457 kts 279°
2026-05-04 18:59 40.65578 83.25229 33758 ft 457 kts 279°
2026-05-04 19:00 40.67223 83.17141 33751 ft 457 kts 280°
2026-05-04 19:00 40.68862 83.09047 33759 ft 457 kts 280°
2026-05-04 19:01 40.70495 83.00954 33758 ft 457 kts 280°
2026-05-04 19:01 40.72111 82.92912 33759 ft 457 kts 280°
2026-05-04 19:02 40.73733 82.84811 33761 ft 457 kts 280°
2026-05-04 19:02 40.75348 82.76706 33759 ft 457 kts 280°
2026-05-04 19:03 40.76962 82.68577 33766 ft 458 kts 280°
2026-05-04 19:03 40.78572 82.60439 33762 ft 459 kts 280°
2026-05-04 19:04 40.80178 82.52284 33763 ft 460 kts 280°
2026-05-04 19:04 40.81782 82.44108 33765 ft 460 kts 280°
2026-05-04 19:05 40.83384 82.35908 33766 ft 461 kts 281°
2026-05-04 19:05 40.84974 82.27736 33763 ft 463 kts 281°
2026-05-04 19:06 40.86569 82.19505 33760 ft 464 kts 281°
2026-05-04 19:06 40.88162 82.11249 33762 ft 464 kts 281°
2026-05-04 19:07 40.89756 82.02953 33758 ft 465 kts 281°
2026-05-04 19:07 40.91078 81.96050 33761 ft 466 kts 281°
2026-05-04 19:08 40.92663 81.87732 33759 ft 467 kts 281°
2026-05-04 19:08 40.94247 81.79392 33757 ft 467 kts 281°
2026-05-04 19:09 40.95826 81.71047 33758 ft 468 kts 281°
2026-05-04 19:09 40.97444 81.62692 33759 ft 469 kts 283°
2026-05-04 19:10 40.99000 81.55805 33758 ft 470 kts 285°
2026-05-04 19:10 41.01256 81.46134 33761 ft 471 kts 285°
2026-05-04 19:11 41.03140 81.37873 33764 ft 471 kts 284°
2026-05-04 19:11 41.05004 81.29556 33764 ft 471 kts 284°
2026-05-04 19:12 41.07786 81.17047 33763 ft 472 kts 285°
2026-05-04 19:13 41.09635 81.08702 33766 ft 472 kts 285°
2026-05-04 19:13 41.11480 81.00347 33771 ft 473 kts 285°
2026-05-04 19:14 41.13325 80.91959 33773 ft 473 kts 285°
2026-05-04 19:14 41.15161 80.83579 33770 ft 473 kts 285°
2026-05-04 19:15 41.16996 80.75174 33770 ft 474 kts 285°
2026-05-04 19:15 41.18814 80.66812 33774 ft 474 kts 285°
2026-05-04 19:16 41.20639 80.58384 33777 ft 475 kts 285°
2026-05-04 19:16 41.22459 80.49950 33777 ft 475 kts 285°
2026-05-04 19:17 41.24273 80.41506 33779 ft 475 kts 285°
2026-05-04 19:17 41.26083 80.33056 33780 ft 475 kts 285°
2026-05-04 19:18 41.27880 80.24583 33769 ft 475 kts 285°
2026-05-04 19:18 41.29659 80.16126 33775 ft 475 kts 285°
2026-05-04 19:19 41.31434 80.07653 33787 ft 475 kts 285°
2026-05-04 19:19 41.33204 79.99183 33795 ft 475 kts 285°
2026-05-04 19:20 41.34958 79.90752 33795 ft 476 kts 285°
2026-05-04 19:20 41.36721 79.82246 33793 ft 476 kts 285°
2026-05-04 19:21 41.38478 79.73736 33815 ft 476 kts 285°
2026-05-04 19:21 41.40229 79.65219 33824 ft 477 kts 285°
2026-05-04 19:22 41.41973 79.56698 33817 ft 477 kts 285°
2026-05-04 19:22 41.43713 79.48164 33829 ft 477 kts 285°
2026-05-04 19:23 41.45434 79.39689 33861 ft 476 kts 285°
2026-05-04 19:23 41.47164 79.31131 33886 ft 476 kts 285°
2026-05-04 19:24 41.48876 79.22628 33909 ft 476 kts 284°
2026-05-04 19:24 41.50587 79.14091 33933 ft 475 kts 284°
2026-05-04 19:25 41.52280 79.05612 33955 ft 475 kts 284°
2026-05-04 19:25 41.53982 78.97051 34002 ft 475 kts 284°
2026-05-04 19:26 41.55658 78.88554 34010 ft 476 kts 283°
2026-05-04 19:26 41.56561 78.79812 34052 ft 475 kts 272°
2026-05-04 19:27 41.56388 78.71031 34063 ft 475 kts 267°
2026-05-04 19:27 41.56044 78.62173 34074 ft 476 kts 267°
2026-05-04 19:28 41.55719 78.53368 34077 ft 476 kts 267°
2026-05-04 19:28 41.55410 78.44572 34090 ft 475 kts 267°
2026-05-04 19:29 41.55101 78.35728 34097 ft 474 kts 267°
2026-05-04 19:29 41.54790 78.26984 34092 ft 473 kts 266°
2026-05-04 19:30 41.54469 78.18198 34092 ft 472 kts 266°
2026-05-04 19:30 41.54143 78.09445 34085 ft 472 kts 266°
2026-05-04 19:31 41.53810 78.00725 34106 ft 472 kts 266°
2026-05-04 19:31 41.53471 77.91987 34095 ft 472 kts 266°
2026-05-04 19:32 41.53123 77.83209 34104 ft 472 kts 266°
2026-05-04 19:32 41.52771 77.74490 34109 ft 473 kts 266°
2026-05-04 19:33 41.52409 77.65687 34104 ft 474 kts 266°
2026-05-04 19:33 41.52041 77.56922 34106 ft 474 kts 266°
2026-05-04 19:34 41.51667 77.48140 34123 ft 475 kts 266°
2026-05-04 19:34 41.51286 77.39372 34124 ft 474 kts 266°
2026-05-04 19:35 41.50897 77.30577 34123 ft 474 kts 266°
2026-05-04 19:35 41.50503 77.21814 34122 ft 474 kts 265°
2026-05-04 19:36 41.50102 77.13050 34128 ft 473 kts 265°
2026-05-04 19:36 41.49695 77.04284 34126 ft 473 kts 265°
2026-05-04 19:37 41.49279 76.95501 34118 ft 472 kts 265°
2026-05-04 19:37 41.48860 76.86773 34113 ft 472 kts 265°
2026-05-04 19:38 41.48435 76.78064 34116 ft 472 kts 265°
2026-05-04 19:38 41.48002 76.69332 34121 ft 471 kts 265°
2026-05-04 19:39 41.47565 76.60629 34129 ft 471 kts 265°
2026-05-04 19:39 41.47121 76.51936 34130 ft 471 kts 265°
2026-05-04 19:40 41.46668 76.43199 34125 ft 471 kts 265°
2026-05-04 19:40 41.46209 76.34481 34122 ft 471 kts 265°
2026-05-04 19:41 41.45748 76.25827 34136 ft 471 kts 264°
2026-05-04 19:41 41.45277 76.17133 34125 ft 471 kts 264°
2026-05-04 19:42 41.44797 76.08392 34119 ft 471 kts 264°
2026-05-04 19:42 41.44315 75.99715 34128 ft 472 kts 264°
2026-05-04 19:43 41.43821 75.90965 34131 ft 472 kts 264°
2026-05-04 19:43 41.43322 75.82221 34117 ft 473 kts 264°
2026-05-04 19:44 41.42820 75.73529 34128 ft 473 kts 264°
2026-05-04 19:44 41.42307 75.64776 34132 ft 473 kts 264°
2026-05-04 19:45 41.41791 75.56054 34141 ft 473 kts 264°
2026-05-04 19:45 41.41267 75.47284 34132 ft 473 kts 264°
2026-05-04 19:46 41.40741 75.38595 34146 ft 473 kts 264°
2026-05-04 19:46 41.40205 75.29860 34140 ft 473 kts 264°
2026-05-04 19:47 41.39664 75.21152 34145 ft 472 kts 264°
2026-05-04 19:47 41.39116 75.12428 34151 ft 472 kts 263°
2026-05-04 19:48 41.38563 75.03732 34138 ft 471 kts 263°
2026-05-04 19:48 41.38002 74.95019 34141 ft 471 kts 263°
2026-05-04 19:49 41.37441 74.86373 34145 ft 471 kts 263°
2026-05-04 19:49 41.36866 74.77650 34144 ft 472 kts 263°
2026-05-04 19:50 41.36288 74.68955 34136 ft 472 kts 263°
2026-05-04 19:50 41.35703 74.60241 34139 ft 473 kts 263°
2026-05-04 19:51 41.35110 74.51508 34140 ft 473 kts 263°
2026-05-04 19:51 41.34514 74.42787 34142 ft 474 kts 263°
2026-05-04 19:52 41.33904 74.34037 34149 ft 474 kts 263°
2026-05-04 19:52 41.33291 74.25316 34147 ft 475 kts 262°
2026-05-04 19:53 41.32673 74.16589 34138 ft 476 kts 262°
2026-05-04 19:53 41.32043 74.07792 34138 ft 477 kts 262°
2026-05-04 19:54 41.31410 73.99006 34142 ft 477 kts 263°
2026-05-04 19:54 41.30989 73.90218 34138 ft 478 kts 265°
2026-05-04 19:55 41.30673 73.81368 34149 ft 478 kts 265°
2026-05-04 19:55 41.30328 73.72570 34148 ft 479 kts 264°
2026-05-04 19:56 41.29948 73.63731 34148 ft 478 kts 264°
2026-05-04 19:56 41.29619 73.56379 34142 ft 478 kts 264°
2026-05-04 19:57 41.29219 73.47540 34144 ft 478 kts 264°
2026-05-04 19:57 41.28812 73.38692 34141 ft 478 kts 264°
2026-05-04 19:58 41.28401 73.29901 34140 ft 478 kts 264°
2026-05-04 19:58 41.27983 73.21076 34125 ft 478 kts 263°
2026-05-04 19:59 41.27558 73.12273 34460 ft 479 kts 263°
2026-05-04 19:59 41.27343 73.07856 34854 ft 476 kts 264°
2026-05-04 19:59 41.27127 73.03467 35231 ft 473 kts 264°
2026-05-04 19:59 41.26914 72.99160 35565 ft 471 kts 264°
2026-05-04 20:00 41.26697 72.94812 35862 ft 471 kts 264°
2026-05-04 20:00 41.26478 72.90473 36027 ft 472 kts 265°
2026-05-04 20:00 41.26256 72.86104 36063 ft 474 kts 265°
2026-05-04 20:01 41.25811 72.77396 36081 ft 472 kts 265°
2026-05-04 20:01 41.25359 72.68692 36094 ft 469 kts 265°
2026-05-04 20:02 41.24902 72.60037 36090 ft 468 kts 265°
2026-05-04 20:02 41.24431 72.51444 36082 ft 468 kts 265°
2026-05-04 20:03 41.23943 72.42790 36070 ft 469 kts 265°
2026-05-04 20:03 41.23451 72.34150 36065 ft 471 kts 265°
2026-05-04 20:04 41.22956 72.25501 36068 ft 472 kts 265°
2026-05-04 20:04 41.22452 72.16760 36061 ft 473 kts 265°
2026-05-04 20:05 41.21964 72.08054 36050 ft 474 kts 265°
2026-05-04 20:05 41.21470 71.99314 36055 ft 474 kts 265°
2026-05-04 20:06 41.20966 71.90569 36044 ft 474 kts 265°
2026-05-04 20:06 41.20459 71.81883 36036 ft 474 kts 265°
2026-05-04 20:07 41.19938 71.73167 36032 ft 474 kts 265°
2026-05-04 20:07 41.19402 71.64458 36023 ft 474 kts 265°
2026-05-04 20:08 41.18858 71.55707 36031 ft 473 kts 265°
2026-05-04 20:08 41.18311 71.46991 36025 ft 473 kts 265°
2026-05-04 20:09 41.17761 71.38323 36036 ft 473 kts 265°
2026-05-04 20:09 41.17200 71.29596 36038 ft 473 kts 265°
2026-05-04 20:10 41.16636 71.20915 36048 ft 474 kts 265°
2026-05-04 20:10 41.16063 71.12192 36059 ft 474 kts 265°
2026-05-04 20:11 41.15485 71.03513 36060 ft 474 kts 265°
2026-05-04 20:11 41.14897 70.94771 36065 ft 474 kts 265°
2026-05-04 20:12 41.14307 70.86099 36065 ft 474 kts 265°